Regional Weather Roundup
Issued by NWS

Home | Current Version | Previous Version | Graphics & Text | Print | Product List | Glossary Off
Versions: 1 2 3 4 5 6 7 8 9 10 11 12 13 14 15 16 17 18 19 20 21 22 23 24 25 26 27 28 29 30 31 32 33 34 35 36 37 38 39 40 41 42 43 44 45 46 47 48 49 50

000
ASUS43 KDTX 290610
RWRMI
MICHIGAN HOURLY REGIONAL WEATHER ROUNDUP
NATIONAL WEATHER SERVICE DETROIT/PONTIAC MI
100 AM EST SAT NOV 29 2014

NOTE: "FAIR" INDICATES FEW OR NO CLOUDS BELOW 12,000 FEET WITH NO
SIGNIFICANT WEATHER AND/OR OBSTRUCTION TO VISIBILITY.

MIZ047>049-052>055-059>063-066>070-074>076-081>083-290700-
SOUTHEAST LOWER MICHIGAN

CITY           SKY/WX    TMP DP  RH WIND       PRES   REMARKS
ADRIAN         CLOUDY    28  23  81 SE5       30.04F WCI  23
6HR MIN TEMP:  26; 6HR MAX TEMP:  28;

ALMA           LGT SNOW  27  24  91 SE5       30.00F WCI  21
ANN ARBOR      CLOUDY    29  22  75 SE6       30.04F WCI  23
BAD AXE        CLOUDY    26  24  93 S10       30.05F WCI  16
6HR MIN TEMP:  23; 6HR MAX TEMP:  26;

CARO           CLOUDY    27  23  86 SE7       30.04F WCI  19
DETROIT CITY   CLOUDY    31  24  75 SE7       30.08F WCI  24
6HR MIN TEMP:  27; 6HR MAX TEMP:  32; 6HR PCP: TRACE;

DETROIT        CLOUDY    31  23  72 SE6       30.07F WCI  25
6HR MIN TEMP:  25; 6HR MAX TEMP:  31; 6HR PCP: TRACE;

FLINT          CLOUDY    30  22  72 S8        30.04F WCI  22
6HR MIN TEMP:  26; 6HR MAX TEMP:  30; 6HR PCP:  0.01;

GROSSE ILE     CLOUDY    34  25  69 S14       30.05F WCI  24
HILLSDALE      CLOUDY    29  22  75 S5        29.98F WCI  24
6HR MIN TEMP:  26; 6HR MAX TEMP:  29;

HOWELL         CLOUDY    28  22  78 S8        30.01F WCI  20
6HR MIN TEMP:  24; 6HR MAX TEMP:  28;


CITY           SKY/WX    TMP DP  RH WIND       PRES   REMARKS
JACKSON        FLURRIES  29  21  72 SE9       30.00F WCI  20
6HR MIN TEMP:  26; 6HR MAX TEMP:  29; 6HR PCP: TRACE;

LAMBERTVILLE   CLOUDY    32  23  69 CALM      30.06F
LANSING        FLURRIES  28  21  75 S9        30.00F WCI  19
6HR MIN TEMP:  25; 6HR MAX TEMP:  29; 6HR PCP: TRACE;

LAPEER         CLOUDY    27  24  87 S7        30.05F WCI  20
MASON          LGT SNOW  28  25  87 SE8       30.00F WCI  20
MONROE         CLOUDY    30  25  80 CALM      30.05F
MT. CLEMENS    CLOUDY    32  27  80 S13       30.05F WCI  22
6HR MIN TEMP:  25; 6HR MAX TEMP:  31; 6HR PCP:  0.01;

PONTIAC        FLURRIES  28  23  81 S7        30.03F WCI  21
6HR MIN TEMP:  24; 6HR MAX TEMP:  28; 6HR PCP: TRACE;

PORT HOPE        N/A     26  21  81 VRB6      30.03F WCI  19
6HR MIN TEMP:  23; 6HR MAX TEMP:  26; 6HR PCP:  0.01;

PORT HURON     CLOUDY    27  25  93 SE7       30.09F WCI  19
TRI CITIES     CLOUDY    28  22  78 S8        30.02F WCI  20
6HR MIN TEMP:  26; 6HR MAX TEMP:  28; 6HR PCP: TRACE;

TROY           CLOUDY    31  26  79 SE5       30.07F WCI  27
SAGINAW HB     CLOUDY    28  25  86 SE8       30.02F WCI  20
$$
MIZ043>046-050>051-056>058-064>065-071>073-077>080-290700-
SOUTHWEST LOWER MICHIGAN

CITY           SKY/WX    TMP DP  RH WIND       PRES   REMARKS
BATTLE CREEK   MIX PCPN  31  21  66 S8        29.97F WCI  23
6HR MIN TEMP:  28; 6HR MAX TEMP:  32; 6HR PCP: TRACE;

BENTON HARBOR  MOCLDY    30  23  75 S8        29.94F WCI  22
6HR MIN TEMP:  27; 6HR MAX TEMP:  31;

BIG RAPIDS     CLOUDY    25  24  94 SE5       29.96F WCI  20
6HR MIN TEMP:  23; 6HR MAX TEMP:  25;

COLDWATER      CLOUDY    32  22  67 MISG      29.97F
6HR MIN TEMP:  29; 6HR MAX TEMP:  32;

FREMONT        CLOUDY    28  22  81 SE7       29.94F WCI  20
HOLLAND        CLOUDY    31  23  72 SE6       29.95F WCI  25
6HR MIN TEMP:  28; 6HR MAX TEMP:  31; 6HR PCP:  0.01;

GRAND RAPIDS   CLOUDY    28  24  85 SE7       29.96F WCI  21
6HR MIN TEMP:  26; 6HR MAX TEMP:  29; 6HR PCP:  0.01;

IONIA          CLOUDY    29  25  83 S9        29.96F WCI  21
KALAMAZOO      MOCLDY    30  21  69 S7        29.96F WCI  23
6HR MIN TEMP:  27; 6HR MAX TEMP:  31; 6HR PCP: TRACE;

LUDINGTON      CLOUDY    27  23  85 SE12      29.91F WCI  17
6HR MIN TEMP:  22; 6HR MAX TEMP:  27;

MARSHALL       CLOUDY    29  21  70 SE8       29.97F WCI  21
MOUNT PLEASANT LGT SNOW  26  23  91 SE7       29.98F WCI  18
6HR MIN TEMP:  24; 6HR MAX TEMP:  26;

MUSKEGON       CLOUDY    29  22  75 SE8       29.94F WCI  21
6HR MIN TEMP:  27; 6HR MAX TEMP:  29; 6HR PCP: TRACE;

SOUTH HAVEN    MOCLDY    32  25  74 S6        29.94F WCI  27
$$
MIZ016>042-290700-
NORTHERN LOWER MICHIGAN

CITY           SKY/WX    TMP DP  RH WIND       PRES   REMARKS
ALPENA         CLOUDY    24  21  88 S9        30.01F WCI  14
6HR MIN TEMP:  21; 6HR MAX TEMP:  24; 6HR PCP: TRACE;

BEAVER ISLAND  CLOUDY    30  27  87 SE10      29.90F WCI  21
6HR MIN TEMP:  27; 6HR MAX TEMP:  30;

BELLAIRE       FLURRIES  26  21  81 S8        29.95F WCI  18
CADILLAC       CLOUDY    23  20  88 SE8       29.92F WCI  14
CHARLEVOIX     CLOUDY    25  21  85 SE10G16   29.96F WCI  15
6HR MIN TEMP:  23; 6HR MAX TEMP:  25;

FRANKFORT      CLOUDY    26  23  87 SE13G21   29.90F WCI  15
GAYLORD        CLOUDY    22  18  85 S12       29.92F WCI  10
6HR MIN TEMP:  19; 6HR MAX TEMP:  22; 6HR PCP: TRACE;

GRAYLING       CLOUDY    23  21  91 SE5       29.95F WCI  17
6HR MIN TEMP:  21; 6HR MAX TEMP:  23;

HARBOR SPRINGS CLOUDY    25  19  80 E6        29.95F WCI  18
HOUGHTON LAKE  LGT SNOW  23  20  88 S8        29.96F FOG     WCI  14
6HR MIN TEMP:  21; 6HR MAX TEMP:  23; 6HR PCP:  0.03;

MANISTEE       CLOUDY    27  21  80 SE9       29.92F WCI  17
OSCODA         CLOUDY    27  24  88 S9        30.02F WCI  17
PELLSTON       CLOUDY    24  19  81 SE8       29.96F WCI  15
6HR MIN TEMP:  22; 6HR MAX TEMP:  24;

ROGERS CITY    CLOUDY    24  22  93 S8        30.00F WCI  15
TRAVERSE CITY  LGT SNOW  26  21  81 SE8       29.92F WCI  18
6HR MIN TEMP:  24; 6HR MAX TEMP:  26; 6HR PCP:  0.01;

$$
MIZ007>008-015-290700-
EASTERN UPPER MICHIGAN

CITY           SKY/WX    TMP DP  RH WIND       PRES   REMARKS
KINROSS        CLOUDY    23  23 100 SE7       29.96F WCI  15
6HR MIN TEMP:  19; 6HR MAX TEMP:  23;

MACKINAC ISLAN CLOUDY    25  21  83 S10G20    29.95F WCI  15
6HR MIN TEMP:  24; 6HR MAX TEMP:  25;

NEWBERRY       CLOUDY    24  23  96 SE7       29.90F WCI  16
S. S. MARIE    CLOUDY    23  19  85 E5        29.94F WCI  17
6HR MIN TEMP:  18; 6HR MAX TEMP:  23; 6HR PCP: TRACE;

MUNISING         N/A     27  23  85 S6        29.85F WCI  20
6HR MIN TEMP:  20; 6HR MAX TEMP:  27;

$$
MIZ004>006-011>014-085-290700-
CENTRAL UPPER MICHIGAN

CITY           SKY/WX    TMP DP  RH WIND       PRES   REMARKS
MANISTIQUE     CLOUDY    31  28  90 S15       29.87F WCI  20
6HR MIN TEMP:  20; 6HR MAX TEMP:  31;

ESCANABA       CLOUDY    27  21  80 W5        29.85F WCI  21
6HR MIN TEMP:  21; 6HR MAX TEMP:  32; 6HR PCP:  0.01;

MENOMINEE      CLOUDY    21  19  93 CALM      29.84F
6HR MIN TEMP:  19; 6HR MAX TEMP:  21;

SAWYER-GWINN   CLOUDY    21  19  93 SW10      29.82R WCI  10
$$
MIZ001>003-009>011-084-290700-
WESTERN UPPER MICHIGAN

CITY           SKY/WX    TMP DP  RH WIND       PRES   REMARKS
IRON MOUNTAIN  CLOUDY    15  12  88 CALM      29.81F
6HR MIN TEMP:  14; 6HR MAX TEMP:  16; 6HR PCP: TRACE;

HOUGHTON       CLOUDY    18  12  77 CALM      29.78F
6HR MIN TEMP:  18; 6HR MAX TEMP:  20; 6HR PCP: TRACE;

COPPER HARBOR    N/A     28  23  81 VRB3      29.81F
6HR MIN TEMP:  15; 6HR MAX TEMP:  28; 6HR PCP:  0.01;

IRONWOOD       CLOUDY    19  16  86 S7        29.71F WCI  10
6HR MIN TEMP:  16; 6HR MAX TEMP:  19;

$$

ABBREVIATIONS USED IN REMARKS
   TC - TEMPERATURE IN CELSIUS
  WCI - WIND CHILL INDEX
   HX - HEAT INDEX
  VSB - VISIBILITY



USA.gov is the U.S. government's official web portal to all federal, state and local government web resources and services.